Location: Fort Worth, Tx
(32.7431°N, 97.3695°W)
Time: 09:36:10
(UTC-04:00)

O/OREOS (USA 219) - Visible Passes

Search period start: 21 March 2023 00:00
Search period end: 31 March 2023 00:00
Orbit: 621 x 646 km, 72.0° (Epoch: 22 May)

Date Brightness Start Highest point End Pass type
(mag) Time Alt. Az. Time Alt. Az. Time Alt. Az.
22 Mar ? 07:36:46 10° SE 07:39:21 15° E 07:41:55 10° ENE visible
23 Mar ? 07:56:56 10° S 08:01:07 36° ESE 08:05:20 10° NE visible
25 Mar ? 07:03:11 10° SE 07:06:06 17° E 07:09:02 10° ENE visible
26 Mar ? 07:23:37 10° S 07:27:55 41° ESE 07:32:13 10° NE visible
27 Mar ? 07:45:17 10° SSW 07:49:52 77° WNW 07:54:28 10° NNE visible
28 Mar ? 06:29:39 10° SE 06:32:52 19° E 06:36:06 10° NE visible
29 Mar ? 06:50:19 10° S 06:54:42 47° ESE 06:59:06 10° NNE visible
30 Mar ? 07:12:29 12° SSW 07:16:42 68° WNW 07:21:15 10° NNE visible
